Location: Kitt Peak
(31.9639°N, 111.5992°W)
Time: 15:34:57
(UTC-07:00)

SRMSAT - Pass Details

Date: 19 December 2025
Orbit: 846 x 863 km, 20.0° (Epoch: 13 January)

Event Time Altitude Azimuth Distance (km) Brightness Sun altitude
Exits shadow 05:41:42 16° 226° (SW) 2,089 ? -20.6°
Maximum altitude 05:44:56 24° 184° (S) 1,671 ? -20.0°
Drops below altitude 10° 05:49:37 10° 132° (SE) 2,464 ? -19.0°
Sets 05:52:38 0° 119° (ESE) 3,403 ? -18.4°
